COSMOS 1261 DEB, 27796

Orbit data source: Space-Track

COSMOS 1261 DEB, 27796 is space debris in HEO originally from a launch on Tue, 31 Mar 1981 UTC launched from the Plesetsk Missile And Space Complex (PKMTR). Debris objects in space refer to the collection of defunct objects orbiting the Earth. Examples of debris include non-operational satellites, rocket bodies, and fragments generated from explosions, collisions, or faulty payload assembly.

Loading next visibility...
Identifier
27796, 1981-031H
Orbit
HEO
Country
Flag of CISCIS
Related business
Manufacturer
Unknown
Mission
Spacecraft
Bus & Motor
Unknown
Mass
Unknown
Launch date (UTC)
1981-03-31 (44 years ago)
Launch vehicle
Unknown
Launch site
Plesetsk Missile And Space Complex (PKMTR)
Object type
Payload
Rocket body
Debris
Shape & HBR
Unknown
Radar Cross Section
Medium (>0.1 m² and <1 m²)

Expand to show TLE details & history
Last TLE update: 19 hours ago

TLE from 19 hours ago
0 COSMOS 1261 DEB
1 27796U 81031H   25259.32650498 -.00001015  00000-0  00000-0 0  9992
2 27796  65.5580  24.1906 6933753  20.7080 357.0687  2.01776936180340
Epoch: 2025-09-16T07:50Z
TLE epoch observation values (Epoch: 2025-09-16T07:50:10.03Z)
Latitude
-0.00016°
Longitude
-88.88105°
Altitude
1,954.76 km
Speed
8.979 km/s
True Right ascension
01h 36m 42s
True Declination
0° 00' 01"
Sunlit
Object was in full shadow at epoch
Visualization orbit readout
Latitude
Unknown
Longitude
Unknown
Altitude
Unknown
Speed
Unknown
Apparent Right ascension
Unknown
Apparent Declination
Unknown
Sunlit
N/A
Visualization observer readout
Local Sidereal Time
19:45:25
Azimuth
Unknown
Elevation
Unknown
Doppler factor
Unknown
Orbital elements
Apogee altitude
38,416.21 km
Perigee altitude
1,732.914 km
Semi-major axis
26,452.699 km
Eccentricity
0.69338
Inclination
65.558°
RAAN
24.1906°
Arg. of periapsis
20.708°
True anomaly
337.98644°
Mean anomaly
357.0687°
Eccentric anomaly
350.53725°
Mean motion
0.50447 °/min
Orbital period
713.62 mins
BSTAR
0
Loading maneuver chart data...
Computing Atmospheric mass density...
Loading historical data...
Loading historical data...
Loading historical data...
Loading historical data...
Loading historical data...
Loading historical data...
Loading historical data...

Documentation

Showing up to 5 results
|